Date,TemperatureHighF,TemperatureAvgF,TemperatureLowF,DewpointHighF,DewpointAvgF,DewpointLowF,HumidityHigh,HumidityAvg,HumidityLow,PressureMaxIn,PressureMinIn,WindSpeedMaxMPH,WindSpeedAvgMPH,GustSpeedMaxMPH,PrecipitationSumIn
2013-5-1,70.3,57.5,45.3,49.0,27.8,9.9,85,43,10,30.43,30.32,7,4,13,0.00
2013-5-2,70.0,55.6,40.8,46.1,31.0,16.7,82,45,14,30.46,30.34,8,4,13,0.00
2013-5-3,67.6,56.3,43.5,38.8,29.8,17.1,67,41,15,30.43,30.32,9,4,15,0.00
2013-5-4,67.7,54.1,38.8,40.3,28.8,16.7,78,44,15,30.38,30.20,9,4,17,0.00
2013-5-5,64.7,52.0,39.6,37.5,27.3,18.4,76,42,18,30.26,30.17,8,3,14,0.00
2013-5-6,61.7,54.8,43.0,52.8,42.8,28.8,79,64,51,30.20,30.08,9,4,15,0.00
2013-5-7,62.8,60.2,58.3,57.0,53.8,51.1,84,79,73,30.11,29.96,8,4,17,1.38
2013-5-8,69.2,60.6,54.9,56.7,48.6,37.7,87,68,32,30.05,29.96,10,3,15,0.25
2013-5-9,71.6,60.0,49.4,52.4,46.3,39.2,86,64,32,30.05,29.96,8,3,13,0.00
2013-5-10,81.5,65.7,54.3,58.5,46.8,31.2,88,57,17,30.05,29.93,9,3,20,0.94
2013-5-11,72.5,64.9,57.4,62.1,53.3,37.2,89,68,34,29.93,29.78,9,3,13,0.59
2013-5-12,60.3,54.7,40.5,45.8,19.7,2.6,61,29,12,30.05,29.81,16,6,25,0.00
2013-5-13,57.2,46.8,36.9,23.9,13.9,1.9,53,30,12,30.20,30.05,13,4,21,0.00
2013-5-14,61.4,48.2,32.5,31.4,20.4,10.2,68,37,14,30.23,30.05,8,3,15,0.00
2013-5-15,82.8,64.3,53.4,49.7,34.7,20.1,52,34,21,30.05,29.73,12,5,18,0.00
2013-5-16,78.1,70.8,60.6,51.8,45.6,41.5,61,41,30,29.99,29.81,9,4,16,0.00
2013-5-17,81.7,68.5,55.8,60.4,41.6,28.3,84,44,17,30.17,29.99,8,3,12,0.00
2013-5-18,68.7,63.0,58.3,51.8,44.1,26.0,79,52,20,30.26,30.14,9,5,16,0.00
2013-5-19,71.3,63.7,58.3,62.0,56.2,51.8,86,77,56,30.26,30.14,8,3,12,0.00
2013-5-20,80.4,71.7,65.3,61.8,56.6,47.7,86,62,32,30.17,30.05,8,4,15,0.00
2013-5-21,86.2,75.4,63.5,64.7,57.2,50.2,84,56,29,30.05,29.90,9,4,13,0.00
2013-5-22,88.7,75.9,65.1,67.0,54.9,40.5,82,54,19,29.99,29.87,9,3,20,0.44
2013-5-23,77.7,68.9,64.6,63.3,57.9,51.3,85,70,42,29.96,29.81,8,3,13,0.20
2013-5-24,64.6,54.2,45.5,58.4,34.0,16.9,86,49,27,30.23,29.81,14,7,27,0.00
2013-5-25,64.0,52.3,41.4,24.6,17.9,8.6,49,28,13,30.23,30.14,15,7,24,0.00
2013-5-26,69.6,55.3,39.6,33.2,21.0,11.8,64,31,12,30.29,30.17,12,4,20,0.00
2013-5-27,66.7,56.6,41.5,41.6,31.8,23.8,68,42,20,30.32,30.23,6,2,9,0.00
2013-5-28,75.3,65.6,55.9,56.5,45.8,33.1,66,50,37,30.23,30.11,8,5,15,0.00
2013-5-29,88.3,77.1,64.0,58.8,48.6,34.5,72,41,15,30.17,30.11,10,4,17,0.00
2013-5-30,89.8,78.9,66.9,59.6,48.7,39.3,67,38,18,30.26,30.14,8,3,13,0.00
2013-5-31,88.3,78.6,64.6,59.1,45.7,31.1,70,35,13,30.20,30.05,10,4,15,0.00